Hourly Weather Abadan

Today, 1 March, Monday

Time Temperature Precipitation Wind Pressure Humidity
00:00 +20°C° 0 mm 3 mps 761 mmHg 27%
01:00 +20°C° 0 mm 3 mps 760 mmHg 30%
02:00 +20°C° 0 mm 2 mps 760 mmHg 33%
03:00 +20°C° 0 mm 2 mps 759 mmHg 36%
04:00 +19°C° 0.1 mm 3 mps 760 mmHg 40%
05:00 +19°C° 0.1 mm 5 mps 760 mmHg 44%
06:00 +17°C° 0.1 mm 6 mps 760 mmHg 49%
07:00 +19°C° 0 mm 6 mps 761 mmHg 49%
08:00 +20°C° 0 mm 6 mps 761 mmHg 50%
09:00 +20°C° 0 mm 6 mps 761 mmHg 50%
10:00 +20°C° 0.1 mm 6 mps 762 mmHg 51%
11:00 +20°C° 0.1 mm 6 mps 762 mmHg 51%
12:00 +21°C° 0.1 mm 7 mps 762 mmHg 52%
13:00 +20°C° 0.3 mm 6 mps 762 mmHg 53%
14:00 +20°C° 0.3 mm 5 mps 761 mmHg 54%
15:00 +20°C° 0.3 mm 3 mps 761 mmHg 55%
16:00 +20°C° 0 mm 3 mps 761 mmHg 56%
17:00 +20°C° 0 mm 3 mps 761 mmHg 56%
18:00 +19°C° 0 mm 2 mps 762 mmHg 57%
19:00 +19°C° 0 mm 2 mps 762 mmHg 60%
20:00 +19°C° 0 mm 1 mps 762 mmHg 64%
21:00 +19°C° 0 mm 1 mps 762 mmHg 67%
22:00 +18°C° 0 mm 1 mps 762 mmHg 67%
23:00 +18°C° 0 mm 1 mps 763 mmHg 67%

Tomorrow, 2 March, Tuesday

Time Temperature Precipitation Wind Pressure Humidity
00:00 +18°C° 0 mm 1 mps 763 mmHg 68%
01:00 +17°C° 0 mm 2 mps 763 mmHg 67%
02:00 +17°C° 0 mm 2 mps 762 mmHg 66%
03:00 +17°C° 0 mm 3 mps 762 mmHg 65%
04:00 +16°C° 0 mm 3 mps 762 mmHg 65%
05:00 +16°C° 0 mm 3 mps 763 mmHg 65%
06:00 +16°C° 0 mm 3 mps 763 mmHg 66%
07:00 +18°C° 0 mm 3 mps 763 mmHg 60%
08:00 +19°C° 0 mm 4 mps 764 mmHg 54%
09:00 +21°C° 0 mm 4 mps 764 mmHg 48%
10:00 +22°C° 0 mm 4 mps 764 mmHg 43%
11:00 +23°C° 0 mm 4 mps 763 mmHg 38%
12:00 +25°C° 0 mm 4 mps 763 mmHg 33%
13:00 +26°C° 0 mm 4 mps 763 mmHg 30%
14:00 +26°C° 0 mm 4 mps 762 mmHg 28%
15:00 +27°C° 0 mm 4 mps 762 mmHg 25%
16:00 +26°C° 0 mm 4 mps 762 mmHg 25%
17:00 +26°C° 0 mm 4 mps 762 mmHg 26%
18:00 +25°C° 0 mm 3 mps 762 mmHg 26%
19:00 +24°C° 0 mm 3 mps 762 mmHg 27%
20:00 +22°C° 0 mm 3 mps 762 mmHg 29%
21:00 +22°C° 0 mm 3 mps 763 mmHg 31%
22:00 +21°C° 0 mm 3 mps 763 mmHg 32%
23:00 +20°C° 0 mm 2 mps 763 mmHg 34%

Day after tomorrow, 3 March, Wednesday

Time Temperature Precipitation Wind Pressure Humidity
00:00 +20°C° 0 mm 2 mps 763 mmHg 35%
01:00 +19°C° 0 mm 2 mps 763 mmHg 36%
02:00 +19°C° 0 mm 2 mps 762 mmHg 36%
03:00 +19°C° 0 mm 3 mps 762 mmHg 37%
04:00 +18°C° 0 mm 3 mps 762 mmHg 37%
05:00 +18°C° 0 mm 3 mps 762 mmHg 37%
06:00 +17°C° 0 mm 3 mps 762 mmHg 37%
07:00 +19°C° 0 mm 3 mps 763 mmHg 32%
08:00 +21°C° 0 mm 3 mps 763 mmHg 27%
09:00 +22°C° 0 mm 3 mps 763 mmHg 22%
10:00 +25°C° 0 mm 3 mps 763 mmHg 21%
11:00 +26°C° 0 mm 3 mps 762 mmHg 19%
12:00 +27°C° 0 mm 3 mps 762 mmHg 18%
13:00 +27°C° 0 mm 3 mps 762 mmHg 17%
14:00 +27°C° 0 mm 3 mps 761 mmHg 16%
15:00 +28°C° 0 mm 3 mps 760 mmHg 15%
16:00 +27°C° 0 mm 3 mps 761 mmHg 17%
17:00 +26°C° 0 mm 2 mps 761 mmHg 18%
18:00 +25°C° 0 mm 2 mps 761 mmHg 20%
19:00 +25°C° 0 mm 2 mps 761 mmHg 21%
20:00 +24°C° 0 mm 2 mps 761 mmHg 23%
21:00 +23°C° 0 mm 2 mps 761 mmHg 24%
22:00 +21°C° 0 mm 2 mps 761 mmHg 25%
23:00 +21°C° 0 mm 2 mps 761 mmHg 25%

4 March, Thursday

Time Temperature Precipitation Wind Pressure Humidity
00:00 +21°C° 0 mm 2 mps 761 mmHg 25%
01:00 +20°C° 0 mm 2 mps 760 mmHg 26%
02:00 +20°C° 0 mm 2 mps 760 mmHg 26%
03:00 +19°C° 0 mm 2 mps 759 mmHg 26%
04:00 +19°C° 0 mm 2 mps 759 mmHg 27%
05:00 +19°C° 0 mm 2 mps 759 mmHg 28%
06:00 +19°C° 0 mm 2 mps 759 mmHg 28%
07:00 +20°C° 0 mm 3 mps 759 mmHg 26%
08:00 +22°C° 0 mm 3 mps 760 mmHg 24%
09:00 +24°C° 0 mm 3 mps 760 mmHg 22%
10:00 +25°C° 0 mm 4 mps 759 mmHg 20%
11:00 +26°C° 0 mm 5 mps 759 mmHg 19%
12:00 +27°C° 0 mm 5 mps 759 mmHg 17%
13:00 +27°C° 0 mm 5 mps 758 mmHg 18%
14:00 +27°C° 0 mm 6 mps 757 mmHg 19%
15:00 +27°C° 0 mm 6 mps 757 mmHg 20%
16:00 +26°C° 0 mm 6 mps 757 mmHg 23%
17:00 +23°C° 0 mm 6 mps 756 mmHg 26%
18:00 +22°C° 0 mm 6 mps 756 mmHg 29%
19:00 +22°C° 0 mm 6 mps 757 mmHg 31%
20:00 +21°C° 0 mm 5 mps 757 mmHg 34%
21:00 +21°C° 0 mm 5 mps 758 mmHg 36%
22:00 +21°C° 0 mm 4 mps 758 mmHg 36%
23:00 +21°C° 0 mm 4 mps 759 mmHg 35%

5 March, Friday

Time Temperature Precipitation Wind Pressure Humidity
00:00 +21°C° 0 mm 3 mps 759 mmHg 35%
01:00 +20°C° 0 mm 3 mps 760 mmHg 33%
02:00 +19°C° 0 mm 4 mps 760 mmHg 31%
03:00 +18°C° 0 mm 4 mps 761 mmHg 29%
04:00 +18°C° 0 mm 4 mps 761 mmHg 30%
05:00 +17°C° 0 mm 4 mps 761 mmHg 31%
06:00 +15°C° 0 mm 4 mps 762 mmHg 32%
07:00 +16°C° 0 mm 5 mps 763 mmHg 34%
08:00 +17°C° 0 mm 5 mps 763 mmHg 36%
09:00 +20°C° 0 mm 6 mps 764 mmHg 38%
10:00 +21°C° 0 mm 6 mps 764 mmHg 37%
11:00 +22°C° 0 mm 6 mps 764 mmHg 37%
12:00 +23°C° 0 mm 6 mps 764 mmHg 36%
13:00 +23°C° 0 mm 6 mps 763 mmHg 35%
14:00 +24°C° 0 mm 6 mps 763 mmHg 33%
15:00 +24°C° 0 mm 7 mps 763 mmHg 31%
16:00 +24°C° 0 mm 6 mps 763 mmHg 32%
17:00 +23°C° 0 mm 5 mps 763 mmHg 34%
18:00 +23°C° 0 mm 4 mps 763 mmHg 35%
19:00 +22°C° 0 mm 4 mps 763 mmHg 36%
20:00 +21°C° 0 mm 4 mps 764 mmHg 37%
21:00 +21°C° 0 mm 4 mps 764 mmHg 38%
22:00 +20°C° 0 mm 4 mps 764 mmHg 41%
23:00 +19°C° 0 mm 4 mps 764 mmHg 44%

6 March, Saturday

Time Temperature Precipitation Wind Pressure Humidity
00:00 +19°C° 0 mm 4 mps 764 mmHg 47%
01:00 +17°C° 0 mm 5 mps 764 mmHg 48%
02:00 +17°C° 0 mm 5 mps 764 mmHg 49%
03:00 +16°C° 0 mm 5 mps 764 mmHg 50%
04:00 +16°C° 0 mm 5 mps 764 mmHg 47%
05:00 +15°C° 0 mm 5 mps 764 mmHg 45%
06:00 +15°C° 0 mm 5 mps 765 mmHg 42%
07:00 +16°C° 0 mm 6 mps 765 mmHg 39%
08:00 +17°C° 0 mm 7 mps 765 mmHg 36%
09:00 +20°C° 0 mm 8 mps 766 mmHg 33%
10:00 +21°C° 0 mm 8 mps 765 mmHg 30%
11:00 +22°C° 0 mm 8 mps 765 mmHg 26%
12:00 +23°C° 0 mm 8 mps 764 mmHg 23%
13:00 +24°C° 0 mm 8 mps 764 mmHg 20%
14:00 +24°C° 0 mm 8 mps 763 mmHg 17%
15:00 +26°C° 0 mm 8 mps 762 mmHg 15%
16:00 +24°C° 0 mm 7 mps 762 mmHg 15%
17:00 +23°C° 0 mm 6 mps 762 mmHg 16%
18:00 +22°C° 0 mm 5 mps 762 mmHg 16%
19:00 +21°C° 0 mm 5 mps 762 mmHg 17%
20:00 +21°C° 0 mm 5 mps 762 mmHg 18%
21:00 +20°C° 0 mm 5 mps 763 mmHg 19%
22:00 +19°C° 0 mm 5 mps 763 mmHg 21%
23:00 +19°C° 0 mm 5 mps 762 mmHg 22%
Show more

We Need Your Consent

Meteoprog and our Service Providers may store and access personal data such as cookies, device identifiers or other similar technologies on your device and process such data to personalise content and ads, as well as provide social media features and to analyse the traffic.

  • Store and/or access information on your device

    Cookies, device identifiers or other information can be stored or accessed on your device for the purposes indicated above.

  • Personalised ads and content, ad and content measurement, audience insights, and products development

    Ads and content can be personalised based on a profile. More data can be added to better personalise ads and content. Ad and content performance can be measured. Insights about the audience who saw the ads and content can be derived. Such data can be used to develop or improve user’s experience, systems and software.

By clicking ‘I Agree’ you will allow the use of indicated cookies, device identifiers, web beacons or other similar technologies. Your settings can be changed in the browser on your device.

For certain purposes, legitimate interests may be relied on, rather than consent. You can read more about this in our Privacy and Cookie Policy.